Location: Lourdes
(43.1000°N, 0.0500°W)
Time: 12:24:17
(UTC+00:00)

SAR-Lupe-1 - Pass Details

Date: 30 November 2020
Orbit: 481 x 485 km, 98.2° (Epoch: 22 January)

Event Time Altitude Azimuth Distance (km) Brightness Sun altitude
Exits shadow 18:07:10 40° 40° (NE) 722 4.5 -17.9°
Maximum altitude 18:08:13 62° 102° (ESE) 547 4.0 -18.1°
Drops below altitude 10° 18:11:44 10° 183° (S) 1,652 6.9 -18.7°
Sets 18:13:48 0° 187° (S) 2,527 8.0 -19.1°
